This is the latest recevied weather packets stored in our database for station/object KF6RAL-6. If no packets are shown the sender has not sent any weather packets the latest 10 day(s).
| Time | Temp. | Humidity | Pressure | Rain* | Wind** | Luminosity | Snow |
|---|---|---|---|---|---|---|---|
| 1777682227 | 16.11° C | 45% | 1016.9 hPa | 0 mm | - | - | - |
| 1777681806 | 16.11° C | 48% | 1016.8 hPa | 0 mm | - | - | - |
| 1777681385 | 16.11° C | 46% | 1017 hPa | 0 mm | - | - | - |
| 1777680964 | 16.11° C | 46% | 1017.1 hPa | 0 mm | - | - | - |
| 1777680542 | 16.11° C | 44% | 1017.1 hPa | 0 mm | - | - | - |
| 1777680122 | 16.11° C | 42% | 1017.2 hPa | 0 mm | - | - | - |
| 1777679701 | 16.11° C | 40% | 1017.1 hPa | 0 mm | - | - | - |
| 1777679280 | 16.11° C | 40% | 1017.4 hPa | 0 mm | - | - | - |
| 1777678859 | 16.11° C | 45% | 1017.4 hPa | 0 mm | - | - | - |
| 1777678437 | 16.11° C | 42% | 1017.4 hPa | 0 mm | - | - | - |
| 1777678016 | 16.11° C | 42% | 1017.5 hPa | 0 mm | - | - | - |
| 1777677595 | 16.11° C | 48% | 1017.5 hPa | 0 mm | - | - | - |
| 1777677175 | 16.11° C | 45% | 1017.6 hPa | 0 mm | - | - | - |
| 1777676755 | 15.56° C | 44% | 1017 hPa | 0 mm | - | - | - |
| 1777676333 | 15.56° C | 43% | 1017 hPa | 0 mm | - | - | - |
| 1777675911 | 15.56° C | 45% | 1017.2 hPa | 0 mm | - | - | - |
| 1777675490 | 15.56° C | 44% | 1017.6 hPa | 0 mm | - | - | - |
| 1777674649 | 15.56° C | 43% | 1017.7 hPa | 0 mm | - | - | - |
| 1777674228 | 15.56° C | 43% | 1017.7 hPa | 0 mm | - | - | - |
| 1777673807 | 15° C | 43% | 1018.1 hPa | 0 mm | - | - | - |
| 1777673385 | 15° C | 41% | 1018.3 hPa | 0 mm | - | - | - |
| 1777672964 | 15° C | 40% | 1018.2 hPa | 0 mm | - | - | - |
| 1777672543 | 15° C | 39% | 1018.3 hPa | 0 mm | - | - | - |
| 1777671701 | 15° C | 37% | 1018.2 hPa | 0 mm | - | - | - |
| 1777671280 | 15° C | 40% | 1018.2 hPa | 0 mm | - | - | - |
* Rain latest hour (hover to see other rain measurements)
** Current wind speed in m/s (hover to see current wind gust speed)